STARLINK-36820

Last updated on Fri Mar 27 2026 00:02:06 GMT+0000 (Coordinated Universal Time)

1 67966U 26038F 26085.50002314 .00048753 00000+0 15048-2 0 9995 2 67966 97.3028 96.3421 0002310 112.5214 247.0621 15.33400232 5901
UTC large
Height (km)
Speed (km/s)
/
Latitude / Longitude
Inclination (degrees)
Orbital Period (minutes)
Azimuth
Elevation
Range (km)
Doppler Factor

Next 0 passes for location: London (51.5072 / 0.1276)

Sorry there are no passes over London.